Waarnemingen

Advertentie
Mijn weer
La Rochelle/Ile de Re, Frankrijk (7316): temperatuur & dauwpunt: 20.04.2018 11:00:00 - 26.04.2018 11:00:00 (CEST)La Rochelle/Ile de Re, Frankrijk (7316): windsnelheid & windstoten: 20.04.2018 11:00:00 - 26.04.2018 11:00:00 (CEST)La Rochelle/Ile de Re, Frankrijk (7316): windrichting: 20.04.2018 11:00:00 - 26.04.2018 11:00:00 (CEST)La Rochelle/Ile de Re, Frankrijk (7316): luchtdruk: 20.04.2018 11:00:00 - 26.04.2018 11:00:00 (CEST)La Rochelle/Ile de Re, Frankrijk (7316): zicht: 20.04.2018 11:00:00 - 26.04.2018 11:00:00 (CEST)La Rochelle/Ile de Re, Frankrijk (7316): Zonneschijnduur: 20.04.2018 11:00:00 - 26.04.2018 11:00:00 (CEST)La Rochelle/Ile de Re, Frankrijk (7316): neerslag: 20.04.2018 11:00:00 - 26.04.2018 11:00:00 (CEST)
Datum & Tijd tt [°C] td [°C] ff [km/u] ff [kn] fx [km/u] fx [kn] dd ppp [hPa] vv [km] sd [min] rr [mm]
26.04.2018 11:00:00 13,3 7,1 9 5 16 9 ZW 1024,2 20 33 0,0
26.04.2018 10:00:00 14,0 7,3 3 1 9 5 NNW 1024,3 15 60 0,0
26.04.2018 09:00:00 12,9 8,2 2 1 5 3 OZO 1024,3 19 51 0,0
26.04.2018 08:00:00 9,8 7,9 3 2 7 4 ZO 1024,1 19 38 0,0
26.04.2018 07:00:00 9,6 7,0 4 2 11 6 NNO 1023,9 46 0 0,0
26.04.2018 06:00:00 9,7 7,1 8 4 12 6 NNO 1023,8 46 0 0,0
26.04.2018 05:00:00 10,0 6,9 9 5 19 10 NNW 1023,9 50 0 0,0
26.04.2018 04:00:00 11,1 7,2 15 8 29 15 NNW 1024,1 53 0 0,0
26.04.2018 03:00:00 12,1 8,0 13 7 24 13 NNW 1024,2 50 0 0,0
26.04.2018 02:00:00 11,8 7,5 18 10 29 16 NW 1024,3 52 0 0,0
26.04.2018 01:00:00 12,2 7,9 20 11 36 19 NW 1024,2 52 0 0,0
26.04.2018 00:00:00 12,4 7,7 23 12 34 18 NW 1024,0 51 0 0,0
25.04.2018 23:00:00 12,5 8,2 23 13 37 20 NW 1023,9 53 0 0,0
25.04.2018 22:00:00 12,6 7,7 29 15 42 23 NW 1023,3 59 0 0,0
25.04.2018 21:00:00 12,6 7,1 31 17 47 26 NW 1022,3 56 41 0,0
25.04.2018 20:00:00 13,7 8,5 31 17 45 24 WNW 1021,7 20 60 0,0
25.04.2018 19:00:00 14,3 8,3 34 18 48 26 NW 1021,6 10 60 0,0
25.04.2018 18:00:00 14,9 8,8 32 17 48 26 WNW 1021,4 10 60 0,0
25.04.2018 17:00:00 15,1 9,0 34 18 46 25 NW 1021,1 9 57 0,0
25.04.2018 16:00:00 15,4 9,5 26 14 41 22 NW 1021,3 9 49 0,0
25.04.2018 15:00:00 15,0 10,0 30 16 44 24 NW 1021,3 9 33 0,0
25.04.2018 14:00:00 13,6 11,6 31 17 40 22 NW 1021,2 9 0 0,8
25.04.2018 13:00:00 14,3 13,0 23 12 36 19 WZW 1021,1 5 0 0,0
25.04.2018 12:00:00 14,4 12,9 20 11 34 18 ZW 1021,0 19 0 0,2
25.04.2018 11:00:00 13,5 12,6 18 10 31 17 WZW 1020,6 8 0 0,0
25.04.2018 10:00:00 13,9 11,4 17 9 30 16 W 1020,2 18 0 0,0
25.04.2018 09:00:00 13,4 11,3 11 6 28 15 WZW 1019,7 38 0 0,0
25.04.2018 08:00:00 13,4 10,9 10 5 29 15 WZW 1019,5 60 0 0,0
25.04.2018 07:00:00 13,3 10,7 17 9 27 15 WNW 1019,0 19 0 0,0
25.04.2018 06:00:00 13,4 10,6 14 8 22 12 W 1018,6 59 0 0,0
25.04.2018 05:00:00 12,9 10,1 14 7 21 11 W 1018,5 58 0 0,0
25.04.2018 04:00:00 12,4 9,8 14 8 23 12 WNW 1018,5 56 0 0,0
25.04.2018 03:00:00 10,7 8,3 12 6 20 11 WNW 1018,5 60 0 0,0
25.04.2018 02:00:00 11,3 8,2 13 7 25 14 W 1018,8 60 0 0,0
25.04.2018 01:00:00 12,2 8,5 18 10 30 16 NW 1018,9 60 0 0,0
25.04.2018 00:00:00 12,6 9,1 21 12 35 19 NW 1018,9 60 0 0,0
24.04.2018 23:00:00 12,4 9,0 18 10 30 16 NW 1018,8 60 0 0,0
24.04.2018 22:00:00 12,5 9,3 21 11 27 15 NW 1018,1 60 0 0,0
24.04.2018 21:00:00 12,6 8,7 18 10 29 16 NW 1017,9 59 40 0,0
24.04.2018 20:00:00 13,9 9,1 19 10 25 14 NW 1018,0 29 60 0,0
24.04.2018 19:00:00 14,9 9,5 19 10 25 14 NW 1018,3 26 60 0,0
24.04.2018 18:00:00 15,5 10,3 19 10 26 14 NW 1019,0 28 60 0,0
24.04.2018 17:00:00 15,9 9,3 9 5 20 11 WNW 1019,5 40 60 0,0
24.04.2018 16:00:00 15,8 10,3 13 7 25 14 NW 1019,9 20 60 0,0
24.04.2018 15:00:00 15,4 10,0 16 9 24 13 NNW 1020,6 20 60 0,0
24.04.2018 14:00:00 15,3 10,3 16 9 22 12 NNW 1021,1 53 58 0,0
24.04.2018 13:00:00 15,6 10,1 9 5 19 10 WNW 1021,4 40 60 0,0
24.04.2018 12:00:00 15,1 9,2 11 6 18 10 WZW 1021,6 19 60 0,0
24.04.2018 11:00:00 14,8 9,2 9 5 16 9 WZW 1021,6 60 60 0,0
24.04.2018 10:00:00 13,8 8,6 6 3 14 8 W 1021,8 20 60 0,0
24.04.2018 09:00:00 12,9 8,4 4 2 10 5 WZW 1021,7 43 36 0,0
24.04.2018 08:00:00 11,6 8,1 8 4 12 7 W 1021,6 56 11 0,0
24.04.2018 07:00:00 10,9 8,1 8 4 14 8 NNW 1021,1 59 0 0,0
24.04.2018 06:00:00 9,0 7,3 0 0 7 4 N 1021,2 50 0 0,0
24.04.2018 05:00:00 9,2 7,1 6 4 8 4 N 1021,5 57 0 0,0
24.04.2018 04:00:00 9,8 7,6 6 3 10 5 N 1021,6 60 0 0,0
24.04.2018 03:00:00 10,5 8,3 8 4 19 10 N 1021,9 60 0 0,0
24.04.2018 02:00:00 11,4 8,3 12 7 21 12 NNW 1022,1 60 0 0,0
24.04.2018 01:00:00 12,0 8,3 15 8 23 12 NNW 1022,2 60 0 0,0
24.04.2018 00:00:00 12,4 8,7 18 10 25 14 NNW 1022,5 60 0 0,0
23.04.2018 23:00:00 12,6 9,1 16 9 22 12 NW 1022,5 60 0 0,0
23.04.2018 22:00:00 12,7 9,0 15 8 22 12 NW 1022,0 60 0 0,0
23.04.2018 21:00:00 13,0 9,6 14 8 22 12 NW 1021,4 55 39 0,0
23.04.2018 20:00:00 14,4 9,4 16 9 23 12 NW 1021,3 49 60 0,0
23.04.2018 19:00:00 15,7 10,7 15 8 24 13 WNW 1021,3 20 53 0,0
23.04.2018 18:00:00 15,2 10,8 16 9 24 13 WNW 1021,5 59 0 0,0
23.04.2018 17:00:00 15,2 11,0 19 10 26 14 WNW 1021,6 44 0 0,0
23.04.2018 16:00:00 15,6 11,6 16 9 22 12 NW 1021,7 55 0 0,0
23.04.2018 15:00:00 16,0 11,4 12 6 21 12 NW 1021,9 57 6 0,0
23.04.2018 14:00:00 16,1 11,5 17 9 22 12 NNW 1021,9 60 0 0,0
23.04.2018 13:00:00 15,3 10,7 7 4 14 8 NW 1022,0 57 0 0,0
23.04.2018 12:00:00 15,5 10,5 8 5 16 9 NW 1022,1 58 18 0,0
23.04.2018 11:00:00 15,2 10,8 11 6 18 10 NW 1021,8 57 27 0,0
23.04.2018 10:00:00 14,8 11,8 8 4 14 8 NNW 1021,1 51 56 0,0
23.04.2018 09:00:00 13,8 11,3 6 4 14 7 N 1020,6 46 19 0,0
23.04.2018 08:00:00 13,2 11,1 9 5 26 14 N 1020,1 55 33 0,0
23.04.2018 07:00:00 13,1 10,6 16 9 24 13 NNW 1019,4 60 0 0,0
23.04.2018 06:00:00 13,3 10,8 17 9 24 13 NW 1019,1 45 0 0,0
23.04.2018 05:00:00 13,2 10,7 15 8 27 14 WNW 1019,0 15 0 0,0
23.04.2018 04:00:00 13,9 11,4 18 10 24 13 NW 1018,5 13 0 0,0
23.04.2018 03:00:00 14,4 12,3 12 6 22 12 WNW 1018,7 11 0 0,0
23.04.2018 02:00:00 14,3 12,2 14 8 27 14 W 1018,7 8 0 0,0
23.04.2018 01:00:00 14,4 12,4 16 9 25 14 W 1018,3 9 0 0,0
23.04.2018 00:00:00 14,4 12,9 14 7 21 11 W 1018,1 10 0 0,0
22.04.2018 23:00:00 14,5 12,7 8 4 18 10 W 1017,6 9 0 0,0
22.04.2018 22:00:00 14,6 13,0 11 6 20 11 W 1017,0 11 0 0,0
22.04.2018 21:00:00 15,2 13,2 13 7 18 10 W 1016,5 13 37 0,0
22.04.2018 20:00:00 16,3 13,4 11 6 17 9 W 1015,8 19 19 0,0
22.04.2018 19:00:00 16,5 13,4 15 8 21 12 WNW 1015,6 19 0 0,0
22.04.2018 18:00:00 16,8 13,5 16 9 31 17 W 1015,2 19 9 0,0
22.04.2018 17:00:00 17,9 14,0 14 7 23 12 WZW 1014,9 19 5 0,0
22.04.2018 16:00:00 18,3 14,2 11 6 16 9 ZW 1015,2 18 4 0,0
22.04.2018 15:00:00 17,3 14,4 9 5 22 12 NW 1015,4 14 50 0,0
22.04.2018 14:00:00 17,0 14,5 18 10 29 15 NNW 1015,2 11 60 0,0
22.04.2018 13:00:00 19,9 13,1 17 9 26 14 WZW 1015,1 26 60 0,0
22.04.2018 12:00:00 19,2 13,1 13 7 25 14 ZW 1015,0 20 60 0,0
22.04.2018 11:00:00 18,9 14,0 14 7 26 14 Z 1014,7 18 60 0,0
22.04.2018 10:00:00 17,5 13,6 14 8 21 11 Z 1014,3 19 9 0,0
22.04.2018 09:00:00 16,6 13,1 8 5 15 8 Z 1014,2 17 0 0,0
22.04.2018 08:00:00 16,6 12,5 12 6 17 9 ZZW 1013,9 17 0 0,0
22.04.2018 07:00:00 17,1 12,0 11 6 19 11 ZZW 1013,9 20 0 0,0
22.04.2018 06:00:00 17,1 13,0 10 5 16 9 Z 1013,7 20 0 0,0
22.04.2018 05:00:00 17,7 12,2 10 6 13 7 Z 1014,0 34 0 0,0
22.04.2018 04:00:00 16,8 11,5 9 5 13 7 Z 1014,1 37 0 0,0
22.04.2018 03:00:00 15,8 11,6 10 5 11 6 ZZO 1014,5 30 0 0,0
22.04.2018 02:00:00 15,6 11,2 5 3 7 4 Z 1014,9 20 0 0,0
22.04.2018 01:00:00 16,2 12,0 3 2 10 6 Z 1015,1 30 0 0,0
22.04.2018 00:00:00 17,1 10,0 3 2 6 3 NW 1015,2 35 0 0,0
21.04.2018 23:00:00 18,3 9,6 7 4 8 5 NO 1015,1 36 0 0,0
21.04.2018 22:00:00 17,7 11,3 2 1 4 2 NO 1015,1 40 - 0,0
21.04.2018 21:00:00 17,5 11,5 3 1 10 6 NW 1015,2 40 3 0,0
21.04.2018 20:00:00 18,8 12,3 9 5 15 8 NNW 1015,4 43 39 0,0
21.04.2018 19:00:00 20,1 12,6 8 5 16 9 NNW 1015,7 20 57 0,0
21.04.2018 18:00:00 22,3 12,3 11 6 17 9 NW 1016,0 19 60 0,0
21.04.2018 17:00:00 23,1 13,8 11 6 17 9 NNW 1016,6 20 60 0,0
21.04.2018 16:00:00 22,2 13,5 13 7 23 13 NNW 1017,2 19 60 0,0
21.04.2018 15:00:00 24,6 11,9 9 5 22 12 WZW 1017,6 39 60 0,0
21.04.2018 14:00:00 23,8 12,7 11 6 19 11 ZZW 1018,0 28 60 0,0
21.04.2018 13:00:00 22,6 11,9 14 7 24 13 Z 1018,7 19 60 0,0
21.04.2018 12:00:00 21,5 12,3 16 9 27 15 Z 1019,2 20 60 0,0
21.04.2018 11:00:00 19,8 12,1 16 9 29 15 Z 1019,1 20 60 0,0
21.04.2018 10:00:00 19,0 10,5 17 9 31 17 Z 1019,0 19 57 0,0
21.04.2018 09:00:00 18,1 10,0 18 10 28 15 Z 1019,0 28 49 0,0
21.04.2018 08:00:00 16,6 10,0 14 8 20 11 ZZO 1018,8 56 10 0,0
21.04.2018 07:00:00 14,8 10,6 10 6 13 7 ZO 1018,6 45 0 0,0
21.04.2018 06:00:00 14,4 10,6 11 6 14 8 ZO 1018,6 41 0 0,0
21.04.2018 05:00:00 14,3 10,5 13 7 14 8 OZO 1018,9 41 0 0,0
21.04.2018 04:00:00 15,6 10,6 7 4 14 8 ZO 1019,0 47 0 0,0
21.04.2018 03:00:00 17,9 10,3 8 5 14 8 ZZO 1019,1 60 0 0,0
21.04.2018 02:00:00 18,3 10,9 8 4 14 7 ZZO 1019,6 56 0 0,0
21.04.2018 01:00:00 17,4 11,4 11 6 13 7 O 1019,8 53 0 0,0
21.04.2018 00:00:00 18,5 11,6 10 5 14 8 ZZO 1020,0 52 0 0,0
20.04.2018 23:00:00 18,7 11,5 10 6 18 10 ONO 1020,0 52 0 0,0
20.04.2018 22:00:00 20,1 12,1 11 6 13 7 ONO 1019,9 59 0 0,0
20.04.2018 21:00:00 21,2 12,9 11 6 14 8 ONO 1019,5 60 35 0,0
20.04.2018 20:00:00 23,5 14,2 11 6 20 11 ONO 1019,5 58 60 0,0
20.04.2018 19:00:00 25,6 12,8 13 7 21 11 ONO 1019,6 58 60 0,0
20.04.2018 18:00:00 26,7 12,4 12 7 29 15 O 1020,1 51 60 0,0
20.04.2018 17:00:00 26,5 10,6 15 8 27 14 O 1020,5 54 60 0,0
20.04.2018 16:00:00 26,1 9,9 15 8 26 14 O 1021,2 58 60 0,0
20.04.2018 15:00:00 25,6 10,6 14 8 25 14 OZO 1021,8 60 60 0,0
20.04.2018 14:00:00 24,8 11,7 11 6 23 12 OZO 1022,3 60 60 0,0
20.04.2018 13:00:00 23,7 10,7 12 6 20 11 ZO 1022,9 47 60 0,0
20.04.2018 12:00:00 22,9 10,0 10 6 19 10 OZO 1023,1 36 60 0,0
20.04.2018 11:00:00 21,7 9,6 12 7 21 12 ZO 1022,9 20 60 0,0

tt = temperatuur
td = dauwpunt
ff = windsnelheid
fx = windstoten
dd = windrichting
ppp = luchtdruk
vv = zicht
sd = Zonneschijnduur
rr = neerslag

Weerstations in de omgeving